Temperature
15 14 14 14 14 14 14 14 15 15 15 16 16 17 17 17 17 17 17 17 17 17 17 17 17 17 17 17 17 17 17 17 17 18 18 18 18 18 18 18 18 18 17
14 14 14 13 13 13 13 13 14 14 15 15 16 16 16 17 17 17 17 17 17 17 17 17 17 17 17 17 16 17 17 17 17 17 17 17 18 17 18 18 17 18 17
14 13 13 13 13 13 12 13 13 14 14 14 15 15 15 16 16 16 16 17 17 17 17 17 17 17 16 16 16 16 16 16 16 17 17 17 18 18 18 18 18 17 17
13 13 13 12 12 12 12 12 13 13 13 14 14 14 15 15 15 16 16 16 16 17 17 17 17 16 16 16 16 16 16 16 16 16 17 17 17 17 17 17 17 17 17
13 12 12 12 12 12 12 12 12 13 13 13 13 14 14 14 15 15 16 16 16 16 16 16 16 16 16 16 16 16 16 16 16 16 16 16 16 17 17 17 17 17 17
13 12 12 12 12 12 12 12 12 12 13 13 13 13 14 14 14 14 15 15 15 16 16 16 16 16 16 16 16 16 16 16 16 16 16 16 16 16 16 16 16 16 16
13 12 12 11 11 12 12 12 12 12 13 13 13 13 13 13 14 14 14 15 15 15 15 15 15 15 16 16 15 15 15 15 16 16 15 15 15 15 15 15 15 16 16
12 12 11 11 11 11 11 12 12 12 12 12 13 13 13 13 13 14 14 14 14 15 15 15 15 15 15 15 15 15 15 15 15 15 15 15 15 15 15 15 15 15 15
12 12 11 11 11 11 11 11 12 12 12 12 12 12 13 13 13 13 14 14 14 14 14 15 15 15 15 15 15 15 15 15 15 15 15 15 15 15 15 14 14 14 14
12 12 11 11 11 11 11 11 11 12 12 12 12 12 12 13 13 13 13 14 14 14 14 14 14 14 14 14 15 15 14 14 14 14 14 14 14 14 14 14 14 14 14
12 12 12 11 11 11 11 11 11 11 12 12 12 12 12 13 13 13 13 13 13 14 14 14 14 14 14 14 14 14 14 14 14 14 14 14 14 14 14 14 14 14 14
13 12 12 11 11 11 11 11 11 11 11 12 12 12 12 12 13 13 13 13 13 13 13 13 13 14 14 14 14 14 14 14 14 14 14 14 14 14 14 14 14 13 13
13 13 12 12 11 11 11 11 11 11 11 11 12 12 12 12 12 12 12 12 13 13 13 13 13 13 13 13 13 13 13 13 14 14 14 14 14 14 14 14 14 14 14
14 13 12 12 12 11 11 11 11 11 11 11 11 11 11 12 12 12 12 12 12 12 13 13 13 13 13 13 13 13 13 13 13 13 13 14 13 13 13 13 13 13 14
14 13 13 12 12 12 11 11 11 11 11 11 11 11 11 11 11 12 12 12 12 12 12 12 12 12 12 13 13 13 13 13 13 13 13 13 13 14 13 13 13 13 13
14 13 13 13 12 12 12 11 11 11 11 11 11 11 11 11 11 11 11 11 12 12 12 12 12 12 12 12 13 13 13 13 13 13 13 13 13 13 13 13 13 13 13
14 14 13 13 12 12 12 11 11 11 11 11 11 11 11 11 11 11 11 11 11 11 12 12 12 12 12 12 12 13 13 13 13 13 13 13 13 13 13 13 13 13 13
14 14 13 13 13 12 12 12 11 11 11 11 10 10 11 11 11 11 11 11 11 11 11 11 11 11 12 12 12 12 12 12 13 13 13 13 13 13 13 13 13 13 13
14 14 13 13 13 13 12 12 12 11 11 11 10 10 10 11 11 11 11 11 11 11 11 11 11 11 11 11 12 12 12 12 12 13 13 13 13 13 13 13 13 13 13
14 14 14 13 13 13 12 12 12 11 11 11 11 10 11 11 11 11 10 10 10 10 10 10 11 11 11 11 11 12 12 12 12 12 12 13 13 13 13 12 12 12 12
14 14 14 13 13 13 13 12 12 11 11 11 11 11 11 10 10 10 10 10 10 10 10 10 10 10 11 11 11 11 11 11 11 12 12 12 12 13 13 12 12 12 12
14 14 14 14 13 13 13 12 12 11 11 11 11 11 11 11 10 10 10 10 10 10 10 10 10 10 10 10 11 11 11 11 11 12 12 12 12 12 12 12 12 12 12
14 14 14 14 13 13 13 12 12 12 11 11 11 11 11 11 10 10 10 10 10 10 10 10 10 10 10 10 10 10 11 11 11 11 11 12 12 12 12 12 12 11 11
15 15 14 14 14 13 13 12 12 12 11 11 11 11 11 10 10 10 10 10 10 9 9 9 9 9 9 10 10 10 10 10 10 11 11 11 11 11 11 11 11 11 11
15 15 14 14 14 13 13 13 12 12 11 11 11 11 11 10 10 10 10 10 10 10 10 9 9 9 9 10 10 10 10 10 10 10 10 10 10 10 10 11 11 10 10
15 15 15 14 14 14 13 13 13 12 12 12 11 11 11 10 10 10 10 10 10 10 10 10 10 10 10 10 10 10 10 10 10 10 10 10 10 10 10 10 10 10 10
Wind_Speed
16 15 15 14 14 13 12 12 11 10 9 7 6 6 6 6 7 7 10 11 11 12 11 8 9 8 8 9 9 8 9 8 8 7 6 7 8 8 6 7 6 7 6
18 17 17 15 15 14 14 13 12 11 10 8 7 6 7 7 7 7 9 11 11 11 10 9 8 8 7 8 9 8 7 7 7 6 5 6 7 6 8 7 7 8 7
18 18 18 17 16 15 15 13 13 12 10 9 7 7 6 6 6 7 7 8 11 11 10 9 8 9 9 8 9 9 9 7 8 8 6 5 6 5 7 9 8 8 6
17 17 17 17 17 15 14 14 13 12 11 9 8 8 7 7 7 6 6 7 8 9 11 11 10 10 9 9 9 9 8 8 7 6 7 7 4 4 4 5 7 8 8
17 17 17 17 16 15 13 13 13 12 11 9 8 7 6 6 6 6 6 6 6 7 9 10 10 10 9 9 9 8 9 8 8 6 6 6 5 7 5 4 5 5 6
17 17 17 17 16 15 14 13 12 12 11 9 8 6 6 6 5 5 4 4 3 4 7 8 9 9 8 9 9 9 10 9 9 8 7 6 5 6 5 6 5 4 4
16 17 17 17 16 16 15 14 13 12 12 10 9 7 6 5 4 4 3 2 2 2 4 6 7 7 7 8 9 9 10 10 9 8 6 6 6 4 4 5 5 4 4
15 16 16 15 15 15 15 14 14 13 12 11 10 8 7 4 4 3 2 1 0 0 1 3 4 5 6 7 8 7 8 8 8 8 7 5 5 4 5 4 4 4 4
15 15 15 15 15 14 14 14 14 13 13 12 11 10 8 6 5 5 4 3 2 1 2 2 2 4 5 5 6 6 7 7 7 7 7 6 5 5 5 4 4 4 4
14 14 14 14 13 13 13 13 13 13 12 12 11 9 10 9 8 7 7 6 5 3 2 2 2 3 3 4 4 4 5 6 6 5 6 6 5 5 5 5 4 4 4
12 12 12 13 12 13 12 12 12 13 12 12 11 11 11 11 10 9 9 8 7 6 4 4 3 3 3 2 2 2 3 4 4 4 5 5 4 4 4 4 4 4 4
11 11 11 12 12 13 13 13 13 13 12 12 11 11 11 11 11 11 11 10 9 8 7 5 5 5 4 3 2 2 3 3 4 4 4 4 4 4 4 4 5 4 4
10 10 10 11 12 12 12 12 12 12 12 12 12 12 12 12 12 11 11 11 10 9 8 7 6 6 5 4 3 3 3 3 3 3 4 4 4 4 4 4 4 4 4
10 11 10 11 11 11 11 12 12 11 11 11 11 12 11 11 11 11 11 11 10 10 9 9 8 7 6 5 4 3 3 3 2 2 2 2 3 3 3 3 4 4 4
10 10 10 10 10 11 11 11 11 11 10 11 11 11 11 11 11 11 11 11 10 11 10 9 9 8 7 7 6 3 3 3 3 3 3 3 4 6 3 2 3 4 4
9 9 9 9 10 10 10 10 10 10 10 11 11 11 11 11 11 11 11 11 11 11 11 10 9 9 8 9 9 5 4 3 4 4 4 5 5 7 7 6 5 3 3
7 8 9 8 8 8 9 9 9 9 9 10 10 10 10 11 11 10 10 10 10 10 10 10 10 10 11 11 10 8 5 5 4 4 5 4 5 5 7 8 8 8 7
6 7 7 7 7 7 7 7 7 8 9 9 10 10 10 10 10 10 10 10 9 9 9 10 10 10 11 12 11 8 6 6 6 5 5 5 5 5 5 7 7 8 8
5 6 6 6 6 6 6 6 7 7 8 8 9 9 9 10 10 10 10 9 8 9 9 9 10 10 11 13 10 7 6 6 7 7 7 5 6 6 3 6 8 9 9
4 5 5 5 5 5 5 5 6 7 7 7 7 8 8 9 9 9 8 8 7 8 8 9 10 10 10 13 12 8 5 6 6 6 7 10 8 6 5 5 7 8 8
3 4 4 4 4 4 4 5 5 6 6 5 5 6 7 8 8 8 7 7 7 8 8 9 9 10 11 12 13 11 6 5 6 6 6 7 8 8 8 5 6 7 6
2 3 3 3 3 3 3 4 5 4 4 4 5 5 6 6 6 7 8 8 8 8 8 8 9 8 9 10 11 12 10 7 7 6 6 7 10 10 9 7 8 5 3
1 2 2 2 2 2 3 4 4 3 3 4 4 5 5 6 6 7 7 7 7 7 7 7 7 7 7 7 9 10 11 10 8 8 10 9 8 8 10 10 6 3 4
1 1 1 1 2 2 2 2 2 1 2 3 4 4 4 5 6 5 6 7 7 7 7 7 6 6 6 7 6 5 5 6 7 7 9 9 10 8 8 6 6 6 6
2 2 1 1 0 1 1 2 1 1 2 2 3 3 3 3 4 5 5 6 7 6 6 6 6 6 6 7 9 6 5 5 5 4 4 5 5 6 6 6 6 5 5
4 3 2 2 1 1 2 2 2 2 1 1 2 1 1 1 1 2 3 4 4 5 6 7 7 5 6 6 7 8 8 7 3 2 5 5 6 6 5 5 5 6 5
Wind_Direction
356 357 352 348 344 342 337 332 327 325 323 317 308 297 282 270 257 244 239 236 233 234 234 235 235 229 223 220 222 223 222 225 225 226 227 225 226 229 211 224 224 218 203
352 354 351 349 346 342 338 332 328 324 321 314 305 290 286 277 268 255 241 236 233 228 227 223 226 223 222 221 221 217 223 222 221 222 227 230 221 227 230 223 230 233 206
350 348 348 347 345 344 339 334 329 323 319 315 305 295 281 269 261 255 245 236 231 227 224 221 219 219 215 215 215 214 219 221 222 227 220 227 228 205 215 221 223 229 226
352 350 348 347 345 342 339 336 333 330 326 318 307 299 287 278 269 264 253 241 234 226 219 216 212 213 211 212 212 212 218 219 219 225 233 242 250 224 218 212 224 226 226
355 353 352 349 347 346 345 342 340 337 334 328 319 306 292 285 281 273 263 248 234 225 218 214 211 208 207 208 207 208 217 219 219 214 216 229 240 243 242 232 220 217 223
357 356 354 352 352 353 353 350 349 348 344 340 336 328 311 299 292 282 266 254 231 219 215 213 210 207 203 203 206 206 214 219 219 215 211 210 217 228 233 242 242 236 228
359 359 357 356 357 356 357 356 358 358 357 355 353 349 341 328 314 301 280 263 232 216 215 213 209 205 201 201 201 202 209 214 216 214 215 216 223 230 230 238 245 241 232
3 1 0 1 1 359 360 1 3 5 4 4 1 359 359 355 345 339 333 321 320 193 188 198 199 199 200 199 196 194 200 207 209 211 212 214 219 213 218 227 228 237 233
1 1 4 6 6 5 3 3 6 8 8 8 6 8 11 9 9 13 18 24 34 62 106 140 168 181 189 193 195 198 198 203 207 209 209 210 204 202 211 213 212 223 232
1 2 4 6 7 6 4 6 11 11 12 12 15 18 21 19 20 26 30 30 36 47 88 103 129 147 156 173 188 195 199 203 203 204 209 210 206 200 204 208 212 218 231
2 2 2 5 8 9 11 11 12 15 15 15 18 24 26 26 29 30 29 31 35 38 55 69 81 88 101 125 148 169 186 193 190 192 195 199 193 195 199 202 209 214 217
6 7 7 9 11 12 13 15 16 18 17 17 24 28 29 30 33 32 30 34 41 43 50 61 72 76 74 81 98 124 152 162 176 177 180 184 175 187 188 190 197 201 202
10 11 11 12 13 14 14 16 18 18 18 20 25 28 28 30 33 33 32 34 37 40 47 54 60 64 65 65 74 95 116 134 153 165 170 177 176 181 181 184 182 186 187
14 13 12 15 15 16 18 18 20 19 20 22 26 28 27 29 32 33 33 35 36 38 42 47 51 55 57 54 56 67 82 97 110 124 133 147 162 164 172 177 175 174 169
13 13 11 15 16 18 19 21 22 21 22 25 28 27 28 32 33 33 33 36 37 38 40 42 44 46 49 43 39 55 81 92 102 105 104 93 81 68 82 132 158 165 163
8 8 10 12 13 15 15 18 20 23 26 29 29 28 29 31 32 33 34 36 37 37 37 38 39 43 44 41 39 34 74 88 95 100 98 107 109 104 96 80 70 64 139
359 2 4 6 7 10 10 14 17 20 27 32 32 30 30 31 32 34 35 35 37 39 38 37 38 43 42 39 43 36 58 74 78 88 97 96 100 123 117 113 115 86 63
350 355 357 359 1 7 8 13 19 23 29 31 31 29 29 32 33 34 34 34 36 39 38 37 38 43 42 40 39 31 62 68 68 68 79 96 101 89 105 113 103 90 74
332 337 341 345 353 3 3 10 22 28 31 29 26 26 28 31 33 34 32 32 36 40 41 41 40 42 42 39 34 27 68 72 68 62 59 67 90 60 36 114 110 102 88
324 333 336 344 358 7 1 9 24 30 31 28 27 28 30 32 34 34 32 34 39 42 46 45 41 41 41 38 33 24 63 71 74 73 70 56 66 65 11 114 116 111 108
322 328 334 349 358 358 359 13 27 34 34 34 36 34 34 37 35 34 36 40 44 46 48 50 48 46 41 41 38 28 48 66 74 74 71 66 66 65 40 45 90 95 106
326 335 340 358 5 4 6 30 40 43 46 51 50 44 39 36 37 38 37 39 41 45 47 48 49 46 47 44 43 44 43 42 75 71 72 74 72 71 59 68 79 78 93
311 332 339 350 21 34 18 35 59 67 70 68 63 56 53 48 41 39 39 39 40 40 40 42 43 43 43 55 64 61 56 47 68 74 71 73 79 95 84 77 74 97 98
252 291 306 351 48 52 50 52 81 109 95 79 73 68 62 57 51 40 36 38 32 34 37 36 36 39 41 33 30 57 83 94 90 93 96 92 76 82 88 92 77 73 73
214 235 264 326 40 97 109 103 123 150 128 105 98 85 74 61 53 54 39 34 44 30 19 25 26 28 36 25 13 20 46 54 64 86 96 90 90 84 81 79 76 80 88
205 209 211 222 212 173 153 147 167 202 186 135 118 107 102 89 60 60 86 79 54 60 45 28 16 54 48 34 40 48 51 47 12 83 93 89 86 85 87 88 87 82 78
Height
1564 1560 1556 1552 1549 1545 1542 1538 1536 1533 1530 1528 1527 1525 1525 1524 1525 1525 1526 1528 1530 1531 1533 1535 1538 1540 1542 1544 1547 1549 1550 1552 1555 1556 1557 1558 1559 1560 1561 1562 1563 1564 1565
1562 1558 1555 1551 1547 1543 1539 1536 1533 1530 1527 1525 1523 1521 1520 1520 1520 1521 1521 1522 1524 1526 1527 1530 1532 1535 1538 1540 1542 1545 1547 1549 1551 1553 1554 1555 1557 1556 1558 1559 1560 1562 1563
1562 1558 1553 1549 1545 1541 1536 1533 1529 1526 1524 1521 1519 1517 1516 1515 1515 1515 1516 1517 1519 1520 1522 1524 1527 1530 1533 1535 1537 1540 1543 1545 1547 1549 1551 1552 1552 1553 1555 1556 1557 1558 1560
1562 1558 1553 1548 1543 1539 1534 1531 1527 1523 1520 1518 1516 1514 1512 1511 1511 1511 1511 1512 1514 1515 1517 1519 1521 1524 1526 1529 1532 1535 1537 1540 1542 1544 1546 1549 1549 1551 1551 1553 1554 1555 1556
1563 1558 1553 1547 1542 1537 1533 1528 1525 1521 1518 1515 1513 1510 1509 1508 1507 1507 1507 1508 1509 1510 1512 1514 1516 1519 1521 1524 1527 1529 1532 1535 1537 1539 1542 1543 1545 1547 1548 1549 1550 1551 1552
1563 1558 1553 1547 1541 1536 1532 1527 1523 1520 1516 1513 1510 1508 1506 1505 1505 1504 1504 1505 1506 1507 1508 1510 1512 1514 1516 1519 1522 1525 1527 1530 1532 1535 1537 1539 1541 1542 1544 1545 1547 1548 1549
1563 1558 1552 1546 1541 1536 1532 1527 1523 1519 1515 1512 1509 1507 1505 1504 1503 1502 1502 1502 1503 1504 1505 1507 1509 1511 1513 1515 1518 1520 1523 1526 1528 1530 1532 1534 1536 1539 1540 1542 1543 1544 1545
1564 1559 1553 1548 1542 1537 1533 1528 1524 1520 1516 1512 1509 1506 1504 1503 1502 1502 1502 1502 1502 1502 1503 1505 1506 1508 1510 1512 1514 1517 1519 1522 1524 1526 1528 1530 1532 1534 1536 1537 1539 1540 1541
1565 1560 1555 1550 1544 1539 1534 1530 1526 1521 1517 1513 1510 1507 1505 1504 1503 1502 1502 1502 1502 1502 1503 1503 1504 1506 1507 1509 1511 1514 1516 1517 1519 1521 1523 1525 1527 1529 1531 1533 1535 1537 1537
1566 1562 1557 1552 1547 1542 1537 1532 1528 1524 1520 1516 1513 1509 1507 1506 1505 1503 1502 1502 1502 1502 1503 1503 1504 1505 1506 1508 1509 1511 1513 1515 1516 1518 1520 1522 1524 1525 1527 1529 1531 1532 1534
1567 1563 1559 1554 1549 1545 1540 1535 1531 1526 1522 1519 1516 1513 1510 1508 1507 1505 1504 1504 1503 1503 1503 1504 1504 1505 1506 1507 1508 1510 1511 1513 1515 1516 1518 1520 1521 1522 1524 1526 1527 1529 1530
1568 1565 1561 1556 1552 1547 1543 1538 1534 1530 1526 1523 1519 1516 1514 1512 1510 1508 1507 1506 1505 1505 1505 1505 1506 1506 1507 1507 1508 1509 1510 1512 1513 1515 1517 1518 1519 1521 1522 1524 1525 1526 1527
1569 1566 1562 1558 1554 1550 1545 1541 1537 1533 1530 1526 1523 1520 1518 1515 1513 1512 1510 1509 1508 1507 1507 1507 1507 1507 1507 1508 1508 1510 1511 1512 1513 1515 1516 1517 1519 1520 1521 1522 1524 1525 1526
1570 1567 1563 1560 1556 1552 1548 1544 1541 1537 1533 1530 1527 1524 1521 1519 1517 1515 1513 1512 1511 1510 1509 1508 1508 1508 1509 1509 1509 1510 1511 1513 1514 1515 1516 1517 1519 1520 1521 1522 1523 1524 1525
1571 1568 1565 1562 1558 1555 1551 1547 1544 1540 1537 1534 1530 1527 1525 1523 1520 1518 1517 1515 1513 1512 1511 1510 1510 1510 1510 1509 1510 1511 1512 1513 1514 1515 1516 1517 1518 1519 1520 1522 1523 1524 1524
1571 1569 1566 1563 1560 1557 1554 1550 1547 1543 1540 1537 1534 1531 1528 1526 1523 1521 1520 1518 1517 1515 1514 1513 1512 1511 1511 1511 1511 1511 1512 1513 1515 1516 1517 1518 1519 1520 1521 1522 1522 1524 1525
1572 1569 1567 1564 1561 1559 1555 1552 1549 1546 1543 1540 1537 1534 1532 1529 1527 1525 1523 1521 1520 1518 1517 1515 1514 1513 1512 1512 1512 1512 1513 1514 1515 1516 1518 1519 1519 1521 1522 1522 1523 1524 1525
1571 1569 1567 1565 1562 1560 1557 1554 1551 1548 1546 1543 1540 1537 1535 1533 1530 1528 1526 1524 1523 1521 1519 1518 1517 1516 1515 1514 1514 1514 1514 1514 1515 1517 1519 1520 1521 1522 1523 1524 1525 1525 1526
1571 1569 1567 1565 1563 1560 1558 1556 1553 1551 1548 1545 1543 1540 1538 1536 1533 1531 1529 1527 1525 1523 1522 1520 1519 1518 1517 1516 1516 1516 1516 1516 1517 1518 1519 1521 1522 1523 1524 1525 1526 1526 1527
1570 1568 1567 1565 1563 1561 1559 1557 1555 1552 1550 1547 1545 1543 1541 1539 1536 1534 1532 1530 1528 1526 1525 1523 1521 1520 1519 1518 1518 1517 1518 1518 1518 1519 1521 1522 1523 1524 1525 1527 1527 1528 1529
1569 1568 1566 1565 1563 1561 1559 1558 1556 1553 1551 1549 1547 1545 1543 1541 1539 1537 1534 1533 1531 1529 1527 1526 1524 1523 1522 1521 1520 1520 1520 1520 1521 1521 1522 1523 1524 1525 1526 1527 1528 1529 1530
1568 1567 1566 1565 1563 1561 1560 1559 1556 1554 1552 1550 1549 1547 1545 1543 1541 1539 1537 1536 1534 1532 1531 1529 1528 1527 1525 1524 1523 1522 1522 1522 1523 1523 1524 1525 1526 1527 1528 1528 1529 1530 1531
1568 1566 1565 1564 1563 1561 1560 1559 1557 1555 1554 1552 1550 1549 1547 1546 1544 1542 1540 1539 1537 1535 1534 1532 1531 1530 1529 1527 1526 1525 1525 1525 1525 1525 1526 1526 1527 1528 1529 1530 1530 1531 1532
1566 1566 1565 1564 1563 1561 1560 1559 1557 1556 1555 1554 1552 1551 1550 1548 1547 1545 1543 1541 1540 1538 1537 1535 1534 1532 1531 1530 1529 1529 1528 1527 1527 1528 1528 1529 1529 1530 1530 1531 1532 1533 1533
1565 1564 1564 1563 1562 1561 1560 1559 1558 1557 1556 1555 1554 1553 1551 1550 1549 1547 1545 1544 1542 1540 1539 1537 1536 1535 1533 1532 1531 1530 1530 1530 1530 1530 1531 1531 1532 1532 1532 1533 1533 1534 1534
1564 1563 1563 1562 1562 1561 1560 1559 1557 1557 1557 1556 1555 1554 1553 1552 1551 1549 1548 1546 1544 1543 1541 1539 1538 1537 1535 1534 1533 1532 1532 1532 1531 1532 1532 1533 1533 1533 1534 1534 1534 1535 1535